Weather History for Hof Plauen, Germany

Change the Weather History Date:

Sunday, March 24, 2013

  Actual Average Record
Temperature  
Mean Temperature 22 °F -  
Max Temperature 30 °F 44 °F 59 °F (2003)
Min Temperature 14 °F 31 °F 14 °F (2013)
Degree Days  
Heating Degree Days 43    
Moisture  
Dew Point 3 °F    
Average Humidity 42    
Maximum Humidity 62    
Minimum Humidity 15    
Precipitation  
Precipitation 0.00 in - - ()
Sea Level Pressure  
Sea Level Pressure 30.00 in    
Wind  
Wind Speed 12 mph ()    
Max Wind Speed 20 mph    
Max Gust Speed 28 mph    
Visibility 7.1 miles    
Events      
Averages and records for this station are not official NWS values.
T = Trace of Precipitation, MM = Missing Value Source: Averaged Metar Reports

Daily Weather History Graph

Daily Weather History Graph

Search for Another Location

Airport:

Trip Planner

Search our weather history database for the weather conditions in past years. The results will help you decide how hot, cold, wet, or windy it might be!

Date:

Astronomy

Mar. 24, 2013 Rise Set
Actual Time 6:06 AM CET 6:32 PM CET
Civil Twilight 5:33 AM CET 7:04 PM CET
Nautical Twilight 4:55 AM CET 7:43 PM CET
Astronomical Twilight 4:15 AM CET 8:24 PM CET
Moon 3:28 PM CET (3/24) 4:23 AM CET (3/24)
Length of Visible Light 13h 30m
Length of Day
12h 25m
Waxing Gibbous, 90% of the Moon is Illuminated
Mar 24
Waxing Gibbous
Mar 27
Full
Apr 3
Last Quarter
Apr 10
New
Apr 18
First Quarter

Hourly Weather History & Observations

Time (CET) Temp. Windchill Dew Point Humidity Pressure Visibility Wind Dir Wind Speed Gust Speed Precip Events Conditions
12:00 AM 18 °F - 7 °F 50% 30.18 in 7 mi ENE 8.9 mph - -   Overcast
12:20 AM 17.6 °F 4.3 °F 3.2 °F 53% 30.01 in 6.2 mi ENE 12.7 mph - N/A   Overcast
12:50 AM 17.6 °F 5.0 °F 3.2 °F 53% 30.01 in 6.2 mi ENE 11.5 mph - N/A   Overcast
1:00 AM 17 °F - 7 °F 53% 30.18 in 7 mi ENE 8.9 mph - -   Overcast
1:20 AM 17.6 °F 4.3 °F 3.2 °F 53% 30.01 in 6.2 mi ENE 12.7 mph - N/A   Overcast
1:50 AM 17.6 °F 4.3 °F 5.0 °F 58% 30.01 in 6.2 mi ENE 12.7 mph - N/A   Overcast
2:00 AM 17 °F - 6 °F 49% 30.17 in 7 mi East 8.9 mph - -   Overcast
2:20 AM 17.6 °F 4.3 °F 5.0 °F 58% 30.01 in 6.2 mi ENE 12.7 mph - N/A   Overcast
2:50 AM 15.8 °F 2.1 °F 5.0 °F 62% 29.98 in 6.2 mi ENE 12.7 mph - N/A   Overcast
3:00 AM 16 °F - 6 °F 53% 30.16 in 7 mi East 8.9 mph - -   Overcast
3:20 AM 15.8 °F 2.1 °F 5.0 °F 62% 29.98 in 6.2 mi ENE 12.7 mph - N/A   Overcast
3:50 AM 15.8 °F 3.4 °F 5.0 °F 62% 29.98 in 6.2 mi ENE 10.4 mph - N/A   Overcast
4:20 AM 15.8 °F 2.1 °F 3.2 °F 58% 29.98 in 6.2 mi ENE 12.7 mph - N/A   Overcast
4:50 AM 15.8 °F 2.1 °F 3.2 °F 58% 29.98 in 6.2 mi East 12.7 mph - N/A   Overcast
5:00 AM 15 °F - 4 °F 48% 30.15 in 7 mi East 11.2 mph - -   Overcast
5:20 AM 15.8 °F 0.9 °F 3.2 °F 58% 29.98 in 6.2 mi East 15.0 mph - N/A   Overcast
5:50 AM 15.8 °F 2.1 °F 3.2 °F 58% 29.98 in 6.2 mi East 12.7 mph - N/A   Overcast
6:00 AM 15 °F - 3 °F 45% 30.15 in 9 mi East 11.2 mph - -   Partly Cloudy
6:20 AM 15.8 °F 2.7 °F 1.4 °F 53% 29.98 in 6.2 mi ENE 11.5 mph - N/A   Overcast
6:50 AM 15.8 °F 2.1 °F -0.4 °F 49% 29.98 in 6.2 mi East 12.7 mph - N/A   Overcast
7:00 AM 15 °F - 1 °F 39% 30.17 in 9 mi East 11.2 mph - -   Mostly Cloudy
7:20 AM 15.8 °F -0.2 °F -0.4 °F 49% 29.98 in 6.2 mi East 17.3 mph - N/A   Overcast
7:50 AM 15.8 °F 2.1 °F -0.4 °F 49% 29.98 in 6.2 mi East 12.7 mph - N/A   Overcast
8:00 AM 15 °F - 0 °F 37% 30.16 in 11 mi East 11.2 mph - -   Mostly Cloudy
8:20 AM 15.8 °F 2.7 °F -0.4 °F 49% 29.98 in 6.2 mi East 11.5 mph - N/A   Overcast
8:50 AM 15.8 °F 0.9 °F -2.2 °F 45% 29.98 in - ENE 15.0 mph - N/A   Clear
9:00 AM 17 °F - -0 °F 31% 30.15 in 9 mi East 11.2 mph - -   Mostly Cloudy
9:20 AM 17.6 °F 4.3 °F -0.4 °F 45% 29.98 in - ENE 12.7 mph - N/A   Clear
9:50 AM 17.6 °F 3.7 °F -0.4 °F 45% 29.98 in - East 13.8 mph - N/A   Clear
10:20 AM 19.4 °F 5.0 °F -0.4 °F 42% 29.98 in - ENE 16.1 mph - N/A   Clear
10:50 AM 21.2 °F 8.3 °F -2.2 °F 36% 29.98 in - ENE 13.8 mph - N/A   Clear
11:00 AM 21 °F - 1 °F 27% 30.12 in 9 mi East 15.7 mph - -   Partly Cloudy
11:20 AM 21.2 °F 7.3 °F -0.4 °F 39% 29.95 in - East 16.1 mph - N/A   Clear
11:50 AM 23.0 °F 10.1 °F -2.2 °F 33% 29.95 in - ENE 15.0 mph - N/A   Clear
12:00 PM 23 °F - -2 °F 19% 30.10 in 9 mi East 13.4 mph - -   Scattered Clouds
12:20 PM 24.8 °F 11.5 °F -2.2 °F 31% 29.95 in - ENE 17.3 mph - N/A   Clear
12:50 PM 24.8 °F 12.4 °F -2.2 °F 31% 29.95 in - ENE 15.0 mph - N/A   Clear
1:00 PM 26 °F - -0 °F 18% 30.06 in 7 mi East 15.7 mph - -   Scattered Clouds
1:20 PM 26.6 °F 13.8 °F -2.2 °F 29% 29.92 in - ENE 17.3 mph - N/A   Clear
1:50 PM 26.6 °F 13.8 °F -2.2 °F 29% 29.92 in - ENE 17.3 mph - N/A   Clear
2:00 PM 29 °F - -1 °F 15% 30.04 in 9 mi East 13.4 mph - -   Scattered Clouds
2:20 PM 28.4 °F 16.6 °F -0.4 °F 29% 29.92 in - ENE 16.1 mph - N/A   Clear
2:50 PM 28.4 °F 16.6 °F -0.4 °F 29% 29.92 in - East 16.1 mph - N/A   Clear
3:00 PM 29 °F - 1 °F 16% 30.03 in 7 mi East 15.7 mph - -   Clear
3:20 PM 28.4 °F 16.2 °F -0.4 °F 29% 29.92 in - East 17.3 mph - N/A   Clear
3:50 PM 28.4 °F 15.8 °F -0.4 °F 29% 29.92 in - East 18.4 mph - N/A   Clear
4:20 PM 28.4 °F 16.2 °F 1.4 °F 31% 29.92 in - East 17.3 mph - N/A   Clear
4:50 PM 28.4 °F 15.4 °F 3.2 °F 34% 29.92 in - East 19.6 mph - N/A   Clear
5:00 PM 29 °F - 4 °F 20% 30.01 in 11 mi East 13.4 mph - -   Scattered Clouds
5:20 PM 28.4 °F 16.2 °F 1.4 °F 31% 29.92 in - ENE 17.3 mph - N/A   Clear
5:50 PM 26.6 °F 14.3 °F 3.2 °F 37% 29.92 in - ENE 16.1 mph - N/A   Clear
6:00 PM 27 °F - 5 °F 25% 30.03 in 13 mi East 13.4 mph - -   Overcast
6:20 PM 26.6 °F 14.7 °F 5.0 °F 40% 29.92 in - ENE 15.0 mph - N/A   Clear
6:50 PM 26.6 °F 14.3 °F 5.0 °F 40% 29.92 in - East 16.1 mph 27.6 mph N/A   Clear
7:00 PM 26 °F - 6 °F 29% 30.04 in 4 mi East 15.7 mph - -   Light Haze
7:20 PM 24.8 °F 11.9 °F 5.0 °F 43% 29.92 in 6.2 mi East 16.1 mph - N/A   Unknown
7:50 PM 24.8 °F 11.9 °F 5.0 °F 43% 29.92 in 6.2 mi ENE 16.1 mph - N/A   Mostly Cloudy
8:00 PM 24 °F - 6 °F 32% 30.06 in 10 mi ENE 11.2 mph - -   Overcast
8:20 PM 24.8 °F 12.9 °F 5.0 °F 43% 29.92 in 6.2 mi ENE 13.8 mph - N/A   Mostly Cloudy
8:50 PM 24.8 °F 11.9 °F 5.0 °F 43% 29.92 in 6.2 mi ENE 16.1 mph - N/A   Overcast
9:00 PM 23 °F - 7 °F 35% 30.06 in 9 mi East 13.4 mph - -   Overcast
9:20 PM 23.0 °F 9.6 °F 5.0 °F 46% 29.92 in 6.2 mi ENE 16.1 mph - N/A   Mostly Cloudy
9:50 PM 23.0 °F 10.1 °F 5.0 °F 46% 29.92 in 6.2 mi ENE 15.0 mph - N/A   Overcast
10:20 PM 23.0 °F 10.6 °F 5.0 °F 46% 29.92 in 6.2 mi ENE 13.8 mph - N/A   Overcast
10:50 PM 23.0 °F 10.1 °F 6.8 °F 50% 29.92 in 6.2 mi ENE 15.0 mph - N/A   Overcast
11:00 PM 22 °F - 8 °F 41% 30.06 in 7 mi East 13.4 mph - -   Overcast
11:20 PM 23.0 °F 9.6 °F 6.8 °F 50% 29.92 in 6.2 mi ENE 16.1 mph - N/A   Overcast
11:50 PM 21.2 °F 7.8 °F 8.6 °F 58% 29.92 in 6.2 mi ENE 15.0 mph - N/A   Mostly Cloudy